Scott Air Force Base, IL

4:47 PM CDT on August 23, 2016 (GMT -0500)
Scott Air Force Base-Midamerica

Weather History for KBLV - August, 2013

Change the Weather History Date:

Tuesday, August 27, 2013

  Actual Average Record
Temperature  
Mean Temperature 80 °F -  
Max Temperature 93 °F 88 °F 99 °F (1983)
Min Temperature 70 °F 62 °F 49 °F (1967)
Cooling Degree Days 16    
Growing Degree Days 30 (Base 50)    
Moisture  
Dew Point 73 °F    
Average Humidity 80    
Maximum Humidity 100    
Minimum Humidity 52    
Precipitation  
Precipitation 0.00 in - - ()
Sea Level Pressure  
Sea Level Pressure 30.04 in    
Wind  
Wind Speed 4 mph (SSW)    
Max Wind Speed 9 mph    
Max Gust Speed -    
Visibility 10 miles    
Events      
Averages and records for this station are not official NWS values.
T = Trace of Precipitation, MM = Missing Value Source: NWS Daily Summary

Daily Weather History Graph

Daily Weather History Graph

Search for Another Location

Airport or City:

Trip Planner

Search our weather history database for the weather conditions in past years. The results will help you decide how hot, cold, wet, or windy it might be!

Date:

Astronomy

Aug. 27, 2013 Rise Set
Actual Time 6:24 AM CDT 7:36 PM CDT
Civil Twilight 5:56 AM CDT 8:03 PM CDT
Nautical Twilight 5:24 AM CDT 8:36 PM CDT
Astronomical Twilight 4:49 AM CDT 9:10 PM CDT
Moon 11:35 PM CDT (8/27) 1:17 PM CDT (8/27)
Length of Visible Light 14h 06m
Length of Day
13h 11m
Waning Gibbous, 57% of the Moon is Illuminated
Aug 27
Waning Gibbous
Aug 28
Last Quarter
Sep 5
New
Sep 12
First Quarter
Sep 19
Full

Hourly Weather History & Observations

Time (CDT) Temp. Heat Index Dew Point Humidity Pressure Visibility Wind Dir Wind Speed Gust Speed Precip Events Conditions
12:58 AM 75.7 °F - 73.9 °F 94% 30.09 in 10.0 mi South 3.5 mph - N/A   Scattered Clouds
1:58 AM 74.3 °F - 73.6 °F 98% 30.08 in 10.0 mi South 4.6 mph - N/A   Clear
2:58 AM 73.9 °F - 73.4 °F 98% 30.07 in 10.0 mi SSW 3.5 mph - N/A   Clear
3:58 AM 72.7 °F - 72.3 °F 99% 30.07 in 10.0 mi Calm Calm - N/A   Clear
4:58 AM 71.6 °F - 71.2 °F 99% 30.07 in 10.0 mi South 4.6 mph - N/A   Clear
5:58 AM 71.1 °F - 70.7 °F 99% 30.07 in 10.0 mi South 4.6 mph - N/A   Clear
6:58 AM 70.7 °F - 70.7 °F 100% 30.08 in 9.0 mi SSW 2.3 mph - N/A   Clear
7:58 AM 73.4 °F - 73.2 °F 99% 30.09 in 10.0 mi SSW 3.5 mph - N/A   Clear
8:58 AM 78.6 °F - 73.4 °F 84% 30.09 in 10.0 mi SW 5.8 mph - N/A   Clear
9:58 AM 82.6 °F 89.1 °F 74.3 °F 76% 30.09 in 10.0 mi SW 5.8 mph - N/A   Clear
10:58 AM 86.7 °F 95.5 °F 74.5 °F 67% 30.08 in 10.0 mi West 4.6 mph - N/A   Partly Cloudy
11:58 AM 88.2 °F 96.4 °F 73.8 °F 62% 30.07 in 10.0 mi NW 6.9 mph - N/A   Scattered Clouds
12:58 PM 90.3 °F 99.9 °F 74.5 °F 59% 30.05 in 10.0 mi South 8.1 mph - N/A   Mostly Cloudy
1:58 PM 89.8 °F 98.6 °F 73.9 °F 59% 30.04 in 10.0 mi Variable 1.2 mph - N/A   Partly Cloudy
2:58 PM 91.2 °F 98.0 °F 71.2 °F 52% 30.01 in 10.0 mi South 8.1 mph - N/A   Partly Cloudy
3:58 PM 90.1 °F 97.8 °F 72.3 °F 56% 30.00 in 10.0 mi South 5.8 mph - N/A   Partly Cloudy
4:58 PM 90.1 °F 99.4 °F 74.1 °F 59% 29.99 in 10.0 mi SSE 8.1 mph - N/A   Clear
5:58 PM 89.4 °F 99.4 °F 75.0 °F 62% 29.99 in 10.0 mi SSE 9.2 mph - N/A   Clear
6:58 PM 86.7 °F 97.3 °F 76.5 °F 71% 29.99 in 10.0 mi SSE 5.8 mph - N/A   Clear
7:58 PM 81.7 °F 88.7 °F 76.1 °F 83% 29.99 in 10.0 mi South 4.6 mph - N/A   Clear
8:58 PM 80.1 °F 85.1 °F 75.2 °F 85% 30.01 in 10.0 mi SSW 4.6 mph - N/A   Clear
9:58 PM 77.5 °F - 74.7 °F 91% 30.01 in 10.0 mi SSW 1.2 mph - N/A   Clear
10:58 PM 75.6 °F - 73.0 °F 92% 30.02 in 10.0 mi South 3.5 mph - N/A   Clear
11:58 PM 75.7 °F - 71.1 °F 85% 30.01 in 10.0 mi SW 3.5 mph - N/A   Clear